Regional Weather Roundup
Issued by NWS

Home | Current Version | Previous Version | Graphics & Text | Print | Product List | Glossary Off
Versions: 1 2 3 4 5 6 7 8 9 10 11 12 13 14 15 16 17 18 19 20 21 22 23 24 25 26 27 28 29 30 31 32 33 34 35 36 37 38 39 40 41 42 43 44 45 46 47 48 49 50

000
ASUS43 KTOP 231308
RWRKS

WEATHER ROUNDUP FOR KANSAS
NATIONAL WEATHER SERVICE GOODLAND KS
800 AM CDT FRI JUN 23 2017

NOTE:  "FAIR" INDICATES FEW OR NO CLOUDS BELOW 12,000 FEET WITH NO
SIGNIFICANT WEATHER AND/OR OBSTRUCTIONS TO VISIBILITY.

KSZ001>006-013>018-027>032-041>047-231400-
NORTHWEST KANSAS

CITY           SKY/WX    TMP DP  RH WIND       PRES   REMARKS
GOODLAND       TSTM      56  54  93 N12       30.19R
HAYS           SUNNY     67  54  63 N10       30.02R
HILL CITY      LGT RAIN  60  56  86 NE15      30.03F
RUSSELL        SUNNY     68  56  65 NE10      29.94F
$$

KSZ061>065-074>080-084>089-231400-
SOUTHWEST KANSAS

CITY           SKY/WX    TMP DP  RH WIND       PRES   REMARKS
DODGE CITY     CLOUDY    66  61  84 N18G24    30.01R
ELKHART          N/A     62  50  65 N16         N/A
GARDEN CITY    SUNNY     64  55  72 NE23      30.02R
GREAT BEND     CLOUDY    69  61  75 N18       29.97R
LIBERAL        CLOUDY    66  61  84 NE20G30   29.99R
PRATT          CLOUDY    67  60  78 N15       29.95R
$$

KSZ066>073-081>083-090>101-231400-
SOUTHEAST KANSAS

CITY           SKY/WX    TMP DP  RH WIND       PRES   REMARKS
CHANUTE        SUNNY     77  72  84 NW7       29.76R
COFFEYVILLE    PTSUNNY   76  73  91 W5        29.76R
HUTCHINSON     MOSUNNY   73  62  68 N17G25    29.88R
MEDICINE LODGE   N/A     73  64  73 N14       29.89R
NEWTON         CLOUDY    73  64  73 N18G25    29.87R
PARSONS        MOSUNNY   75  73  93 CALM      29.76R
WICHITA INTL   PTSUNNY   75  68  78 N21       29.83R
WICHITA JABRA  CLOUDY    75  69  81 N17G24    29.83R
WICHITA MCCONL CLOUDY    74  68  79 N21G28    29.83R
WINFIELD       SUNNY     76  68  76 N16       29.82R
$$

KSZ007>012-019>026-033>040-048>060-102>105-231400-
NORTHEAST KANSAS

CITY           SKY/WX    TMP DP  RH WIND       PRES   REMARKS
CONCORDIA      PTSUNNY   70  54  56 N9        29.97R
EMPORIA        PTSUNNY   73  65  75 N16       29.83R
LAWRENCE       CLOUDY    73  66  78 N7        29.83R
MANHATTAN      PTSUNNY   73  59  61 NE13      29.89R
MARYSVILLE     SUNNY     68  59  73 NE10G16   29.91S
OLATHE IND     LGT RAIN  71  66  84 N12       29.81R
OLATHE EXE     LGT RAIN  70  68  93 NE8       29.81R
SALINA         SUNNY     74  58  57 N18G31    29.93R
TOPEKA BILLARD CLOUDY    72  65  78 N13       29.85R
TOPEKA FORBES  CLOUDY    74  64  71 N13       29.85R
$$



USA.gov is the U.S. government's official web portal to all federal, state and local government web resources and services.